TimeCST,TemperatureF,Dew PointF,Humidity,Sea Level PressureIn,VisibilityMPH,Wind Direction,Wind SpeedMPH,Gust SpeedMPH,PrecipitationIn,Events,Conditions,WindDirDegrees,DateUTC
12:54 AM,36.0,32.0,86,30.10,10.0,WSW,3.5,-,N/A,,Clear,250,2013-12-01 06:54:00
1:54 AM,34.0,32.0,92,30.10,7.0,WSW,4.6,-,N/A,,Clear,240,2013-12-01 07:54:00
2:54 AM,28.9,28.0,96,30.11,4.0,SW,4.6,-,N/A,,Clear,230,2013-12-01 08:54:00
3:54 AM,30.0,28.0,92,30.10,4.0,SW,3.5,-,N/A,,Clear,230,2013-12-01 09:54:00
4:30 AM,30.9,28.9,92,30.10,1.8,SSW,3.5,-,N/A,,Clear,210,2013-12-01 10:30:00
4:54 AM,30.9,28.9,92,30.12,2.5,SW,3.5,-,N/A,,Clear,230,2013-12-01 10:54:00
5:01 AM,30.0,28.9,96,30.10,3.0,SSW,5.8,-,N/A,,Clear,210,2013-12-01 11:01:00
5:37 AM,30.0,28.0,92,30.10,1.8,Calm,Calm,-,N/A,,Clear,0,2013-12-01 11:37:00
5:54 AM,28.0,27.0,96,30.12,0.5,WNW,3.5,-,N/A,Fog,Light Freezing Fog,300,2013-12-01 11:54:00
6:18 AM,30.0,27.0,88,30.10,0.2,Calm,Calm,-,N/A,Fog,Light Freezing Fog,0,2013-12-01 12:18:00
6:54 AM,30.0,28.0,92,30.13,0.2,Calm,Calm,-,N/A,Fog,Light Freezing Fog,0,2013-12-01 12:54:00
7:23 AM,28.9,27.0,92,30.11,0.2,NW,3.5,-,N/A,Fog,Light Freezing Fog,310,2013-12-01 13:23:00
7:41 AM,28.9,28.9,100,30.12,0.2,Calm,Calm,-,N/A,Fog,Light Freezing Fog,0,2013-12-01 13:41:00
7:54 AM,30.9,28.9,92,30.14,0.2,NW,4.6,-,N/A,Fog,Light Freezing Fog,310,2013-12-01 13:54:00
8:22 AM,32.0,30.0,92,30.12,0.8,WNW,3.5,-,N/A,,Clear,290,2013-12-01 14:22:00
8:33 AM,33.1,32.0,96,30.12,1.5,Calm,Calm,-,N/A,,Clear,0,2013-12-01 14:33:00
8:42 AM,34.0,33.1,96,30.12,3.0,Calm,Calm,-,N/A,,Clear,0,2013-12-01 14:42:00
8:54 AM,35.1,33.1,92,30.14,4.0,NNW,3.5,-,N/A,,Clear,330,2013-12-01 14:54:00
9:54 AM,41.0,34.0,76,30.14,8.0,Calm,Calm,-,N/A,,Clear,0,2013-12-01 15:54:00
10:54 AM,44.1,34.0,68,30.13,10.0,Calm,Calm,-,N/A,,Clear,0,2013-12-01 16:54:00
11:54 AM,46.9,32.0,56,30.09,10.0,Calm,Calm,-,N/A,,Clear,0,2013-12-01 17:54:00
12:54 PM,48.9,30.9,50,30.06,10.0,Calm,Calm,-,N/A,,Clear,0,2013-12-01 18:54:00
1:54 PM,51.1,30.9,46,30.04,10.0,North,5.8,-,N/A,,Clear,10,2013-12-01 19:54:00
2:54 PM,50.0,30.0,46,30.03,10.0,Calm,Calm,-,N/A,,Clear,0,2013-12-01 20:54:00
3:54 PM,46.9,32.0,56,30.02,10.0,NE,5.8,-,N/A,,Clear,50,2013-12-01 21:54:00
4:54 PM,44.1,30.0,58,30.01,10.0,ENE,4.6,-,N/A,,Clear,60,2013-12-01 22:54:00
5:54 PM,41.0,30.0,65,30.02,9.0,NE,3.5,-,N/A,,Clear,40,2013-12-01 23:54:00
6:54 PM,42.1,30.0,62,30.00,10.0,East,4.6,-,N/A,,Clear,90,2013-12-02 00:54:00
7:54 PM,39.0,28.9,67,30.00,10.0,NE,5.8,-,N/A,,Clear,40,2013-12-02 01:54:00
8:54 PM,37.9,30.0,73,29.98,9.0,ENE,4.6,-,N/A,,Scattered Clouds,70,2013-12-02 02:54:00
9:54 PM,37.0,28.9,73,29.97,9.0,ENE,4.6,-,N/A,,Mostly Cloudy,70,2013-12-02 03:54:00
10:54 PM,39.0,28.9,67,29.93,10.0,East,6.9,-,N/A,,Scattered Clouds,90,2013-12-02 04:54:00
11:54 PM,37.9,28.9,70,29.94,9.0,East,3.5,-,N/A,,Partly Cloudy,90,2013-12-02 05:54:00